TimeCDT,TemperatureF,Dew PointF,Humidity,Sea Level PressureIn,VisibilityMPH,Wind Direction,Wind SpeedMPH,Gust SpeedMPH,PrecipitationIn,Events,Conditions,WindDirDegrees,DateUTC
12:53 AM,71.1,69.1,93,29.95,10.0,Calm,Calm,-,N/A,,Clear,0,2013-05-22 05:53:00
1:53 AM,70.0,68.0,93,29.93,10.0,ESE,4.6,-,N/A,,Partly Cloudy,120,2013-05-22 06:53:00
2:53 AM,70.0,68.0,93,29.92,10.0,Calm,Calm,-,N/A,,Clear,0,2013-05-22 07:53:00
3:53 AM,69.1,66.9,93,29.92,10.0,SSE,3.5,-,N/A,,Clear,150,2013-05-22 08:53:00
4:53 AM,70.0,68.0,93,29.94,10.0,NW,4.6,-,N/A,,Mostly Cloudy,320,2013-05-22 09:53:00
5:08 AM,69.8,68.0,94,29.95,10.0,NNW,4.6,-,N/A,,Overcast,330,2013-05-22 10:08:00
5:53 AM,70.0,64.0,81,29.97,10.0,NNW,15.0,20.7,N/A,Rain,Light Rain,340,2013-05-22 10:53:00
6:53 AM,68.0,64.0,87,29.99,10.0,Calm,Calm,-,0.09,,Overcast,0,2013-05-22 11:53:00
7:53 AM,68.0,64.9,90,29.99,10.0,Calm,Calm,-,N/A,,Overcast,0,2013-05-22 12:53:00
8:32 AM,68.0,66.2,94,30.04,10.0,WSW,9.2,-,0.02,Rain-Thunderstorm,Light Rain,240,2013-05-22 13:32:00
8:53 AM,66.9,64.9,93,30.04,10.0,SW,8.1,-,0.07,Rain,Rain,220,2013-05-22 13:53:00
9:53 AM,66.9,64.9,93,29.98,10.0,SE,16.1,-,0.22,Rain,Rain,130,2013-05-22 14:53:00
10:53 AM,69.1,66.0,90,29.96,10.0,South,6.9,-,0.01,,Partly Cloudy,180,2013-05-22 15:53:00
11:53 AM,72.0,66.0,81,29.96,10.0,South,5.8,-,N/A,,Clear,170,2013-05-22 16:53:00
12:53 PM,75.0,64.9,71,29.95,10.0,SSW,4.6,-,N/A,,Scattered Clouds,200,2013-05-22 17:53:00
1:53 PM,78.1,66.0,66,29.93,10.0,SSW,4.6,-,N/A,,Clear,210,2013-05-22 18:53:00
2:53 PM,79.0,66.9,66,29.92,10.0,WSW,5.8,-,N/A,,Mostly Cloudy,240,2013-05-22 19:53:00
3:53 PM,78.1,64.9,64,29.91,10.0,SSW,5.8,-,N/A,,Overcast,210,2013-05-22 20:53:00
4:53 PM,79.0,68.0,69,29.92,10.0,SW,5.8,-,N/A,,Mostly Cloudy,220,2013-05-22 21:53:00
5:53 PM,80.1,66.0,62,29.92,10.0,SW,6.9,-,N/A,,Mostly Cloudy,230,2013-05-22 22:53:00
6:53 PM,79.0,66.9,66,29.92,10.0,SW,3.5,-,N/A,,Clear,230,2013-05-22 23:53:00
7:53 PM,75.9,66.9,74,29.94,10.0,WSW,3.5,-,N/A,,Partly Cloudy,240,2013-05-23 00:53:00
8:53 PM,72.0,69.1,91,29.95,10.0,Calm,Calm,-,N/A,,Clear,0,2013-05-23 01:53:00
9:53 PM,71.1,69.1,93,29.96,10.0,Calm,Calm,-,N/A,,Clear,0,2013-05-23 02:53:00
10:53 PM,70.0,68.0,93,29.98,10.0,Calm,Calm,-,0.00,Rain,Light Rain,0,2013-05-23 03:53:00
11:53 PM,70.0,66.9,90,29.97,10.0,SSW,3.5,-,0.00,,Clear,210,2013-05-23 04:53:00